Location: Logan
(41.7360°N, 111.8340°W)
Time: 03:32:52
(UTC-07:00)

Daily predictions for brighter satellites

Satellite Brightness Start Highest point End
(mag) Time Altitude Azimuth Time Altitude Azimuth Time Altitude Azimuth
SL-16 R/B 4.2 04:22:03 20° NNE 04:22:03 20° NNE 04:23:41 10° NNE
Cosmos 1238 Rocket 3.9 04:54:50 61° SE 04:54:50 61° SE 04:59:58 10° SSE
USA 32 4.5 04:55:40 56° NE 04:56:15 60° E 05:01:25 10° SSE
USA 215 3.8 04:53:16 10° NE 04:59:38 54° SE 05:03:50 22° SSW
Cosmos 921 Rocket 4.2 05:11:05 36° SSE 05:11:05 36° SSE 05:13:45 10° SSE
DNEPR-1 R/B 4.4 05:10:32 52° SW 05:12:23 81° WNW 05:18:27 10° NNE
Cosmos 44 Rocket 4.3 05:09:02 12° S 05:13:31 47° ESE 05:18:25 10° NE
CENTAUR R/B 3.4 05:14:52 34° NNW 05:14:52 34° NNW 05:20:01 10° NNE
Cosmos 2369 Rocket 3.6 05:10:40 17° N 05:14:24 36° ENE 05:19:36 10° ESE
Lacrosse 5 2.5 05:14:07 37° S 05:15:50 54° SE 05:20:49 10° NE
Cosmos 1603 3.8 05:11:08 15° SSW 05:15:54 75° ESE 05:21:34 10° NNE
Okean 1 Rocket 4.2 05:17:03 10° SSE 05:21:12 42° E 05:25:20 10° NNE
Meteor 1-17 Rocket 4.5 05:22:27 10° SSW 05:27:57 70° W 05:33:29 10° N
COSMO-SKYMED 1 3.0 05:24:02 10° SSE 05:28:17 59° ENE 05:30:32 27° N
Meteor 1-18 Rocket 4.4 05:29:57 54° W 05:30:13 54° W 05:35:57 10° S
Feng Yun 1-1 Rocket 4.1 05:25:33 10° N 05:31:06 62° WNW 05:36:28 10° SSW
Celestis-02/Orion 38 4.5 05:26:17 10° SSE 05:31:28 86° WSW 05:33:21 42° NNW
Lacrosse 4 Rocket 4.1 05:34:58 10° NNE 05:36:33 12° NE 05:38:07 10° ENE
Meteor 1-20 Rocket 4.1 05:31:41 10° SSW 05:37:09 57° WNW 05:42:34 10° N
Cosmos 1943 4.0 05:34:32 10° S 05:39:58 53° ESE 05:45:27 10° NNE
Okean 1-7 Rocket 4.2 05:36:19 12° N 05:40:19 56° E 05:44:37 10° SSE
Lacrosse 5 rocket 3.9 05:42:30 10° N 05:42:30 10° N 05:42:53 10° N
NOAA 6 3.9 05:37:35 10° N 05:42:44 80° WNW 05:47:50 10° SSW
Tiangong 2 1.6 05:44:45 54° ENE 05:44:45 54° ENE 05:47:20 10° E
Cosmos 1300 Rocket 3.4 05:42:49 10° SSW 05:47:15 77° W 05:51:40 10° N
CRYOSAT 2 4.2 05:44:51 10° S 05:49:43 69° W 05:54:37 10° N
Cosmos 1633 2.5 05:46:35 10° S 05:50:14 85° E 05:53:53 10° N
Transit 2A Rocket 4.4 05:52:17 42° NW 05:53:41 72° WSW 05:57:58 10° SSE
Nadezhda 3 Rocket 4.0 05:49:24 10° N 05:55:49 88° W 06:02:11 10° S
Cosmos 1943 Rocket 3.5 05:51:19 10° N 05:56:21 35° ENE 06:01:21 10° ESE
SKYMED 3 4.5 05:54:02 10° S 05:58:19 64° WSW 06:00:55 23° NNW
BREEZE-M DEB (TANK) 4.4 05:55:05 20° SW 05:58:21 83° SE 06:14:06 10° ENE
SL-16 R/B 3.6 06:03:59 19° NNW 06:03:59 19° NNW 06:06:50 10° N
Cosmos 1602 3.8 06:01:14 10° SSW 06:05:07 55° W 06:09:01 10° N
USA 129 3.3 06:06:22 10° SE 06:08:19 34° ENE 06:09:04 25° NNE
Cosmos 44 3.5 06:06:43 10° SSW 06:12:06 87° ESE 06:17:20 10° NNE
Cosmos 962 Rocket 4.4 06:05:56 10° S 06:12:07 85° W 06:18:25 10° N
USA 229 DEB 4.2 06:06:01 10° SSW 06:12:46 62° ESE 06:19:37 10° NE
USA 229 4.3 06:06:08 10° SSW 06:12:52 62° ESE 06:19:42 10° NE
Meteor 1-19 Rocket 4.2 06:08:10 10° NNW 06:13:57 65° W 06:19:38 10° S
SKYMED 2 4.0 06:12:20 10° SSW 06:16:24 40° W 06:19:09 19° NW
Cosmos 2056 Rocket 4.0 06:14:21 23° NW 06:16:43 36° WSW 06:21:20 10° SSW
Abrixas rocket 2.2 06:16:06 33° W 06:17:25 64° NNW 06:20:46 10° ENE
SL-23 DEB 4.4 06:16:38 23° NNW 06:18:06 38° NNE 06:21:30 10° E
Cosmos 2341 Rocket 3.9 06:14:02 10° SSW 06:20:19 74° W 06:26:35 10° N
Meteor 1-28 Rocket 3.2 06:16:38 10° S 06:20:23 64° W 06:24:11 10° NNW
Cosmos 1346 Rocket 4.4 06:22:47 17° WSW 06:22:47 17° WSW 06:24:27 10° SW
Meteor 2-13 Rocket 4.5 06:15:49 10° SSW 06:21:51 57° WNW 06:27:55 10° N
Cosmos 2263 4.2 06:16:40 10° NNW 06:22:20 86° ENE 06:27:55 10° SSE
Meteor 1-11 Rocket 3.8 06:16:51 10° SSW 06:22:35 56° WNW 06:28:13 10° N
Ariane Rocket 3.1 06:24:46 10° N 06:29:42 54° WNW 06:34:36 10° SSW
YAOGAN 3 4.5 06:27:07 10° N 06:31:30 77° WNW 06:35:50 10° SSW
Cosmos 1340 2.8 06:29:20 10° N 06:33:08 75° E 06:36:55 10° SSE
Okean 2 3.3 06:34:52 10° N 06:39:03 82° W 06:43:12 10° S
Meteor 1-23 Rocket 4.2 06:35:23 10° NNW 06:40:52 61° W 06:46:19 10° S
CSL-04 Rocket 3.8 06:36:30 10° N 06:41:56 56° WNW 06:47:16 10° SSW
USA 215 3.5 06:36:21 10° NE 06:42:35 50° NNW 06:48:49 10° WSW
CZ-2C R/B 2.9 06:38:05 10° NNE 06:43:15 68° ESE 06:48:16 10° S
Cosmos 1025 Rocket 3.4 06:39:26 10° NNW 06:43:36 44° W 06:47:43 10° SSW
CZ-3 R/B 3.3 06:38:33 10° SW 06:43:47 17° SSW 06:46:38 10° SSE
YAOGAN 1 3.1 06:41:54 10° NNE 06:46:13 64° ESE 06:50:30 10° S
CSL-04 Debris 4.2 06:41:12 10° N 06:46:34 59° WNW 06:51:56 10° SSW
IDEFIX/ARIANE 42P 2.8 06:46:01 10° NNE 06:51:14 76° ESE 06:56:26 10° S
Meteor 2-4 Rocket 4.1 06:46:05 10° NNW 06:51:15 42° W 06:56:32 10° SSW
CZ-4 R/B 1.2 06:50:06 10° N 06:54:03 68° WNW 06:57:53 10° SSW
Cosmos 44 Rocket 4.3 06:50:51 10° WSW 06:55:16 28° NW 06:59:38 10° NNE
Cosmos 1536 3.9 06:53:29 10° SW 06:56:43 23° WNW 06:59:58 10° NNW
SL-27 R/B 4.5 06:53:52 10° SSE 06:57:05 34° ESE 07:00:24 10° NE
Cosmos 2369 Rocket 2.9 06:53:15 10° NW 06:58:22 35° WSW 07:03:26 10° SSW
Lacrosse 5 2.6 06:54:25 10° W 06:59:01 33° NNW 07:03:38 10° NNE
Meteor 1-5 Rocket 4.2 06:56:19 10° SSW 07:01:31 52° WNW 07:06:42 10° N
Cosmos 1544 Rocket 3.6 06:57:50 10° SSW 07:02:06 56° W 07:06:26 10° N
Meteor 2-19 Rocket 4.5 06:57:59 10° SSW 07:04:02 64° W 07:10:07 10° N
Cosmos 1484 Rocket 4.0 07:00:47 10° NNE 07:04:26 46° E 07:08:08 10° S
COSMO-SKYMED 1 4.4 07:02:59 10° WSW 07:04:49 12° W 07:06:38 10° WNW
SJ-12 4.0 07:01:26 10° N 07:05:32 58° WNW 07:09:36 10° SSW
Cosmos 1452 Rocket 4.3 07:01:20 10° NW 07:05:58 32° W 07:10:35 10° SSW
CENTAUR R/B 4.4 07:02:58 10° NW 07:06:38 15° NNW 07:10:28 10° NNE
ATLAS 5 CENTAUR R/B 4.4 07:04:58 10° N 07:07:56 14° NNE 07:11:00 10° ENE
CORIOLIS 4.2 07:03:08 10° NNE 07:08:32 89° ESE 07:13:52 10° SSW
Meteor 1-12 Rocket 4.3 07:04:43 10° S 07:10:21 86° E 07:16:02 10° N
AQUARIUS 4.2 07:06:58 10° N 07:11:26 63° WNW 07:15:52 10° SSW
Lacrosse 4 Rocket 1.3 07:11:44 10° NNW 07:15:53 84° WSW 07:19:57 10° SSE
